Location: Newark
(41.6500°N, 71.4833°W)
Time: 16:09:20
(UTC+00:00)

Transit 2A Rocket - Pass Details

Date: 28 January 2020
Orbit: 592 x 911 km, 66.7° (Epoch: 16 February)

Event Time Altitude Azimuth Distance (km) Brightness Sun altitude
Rises 10:23:29 0° 248° (WSW) 2,827 - -18.5°
Reaches altitude 10° 10:26:13 10° 265° (W) 1,922 - -18.0°
Maximum altitude 10:29:23 20° 313° (NW) 1,398 - -17.4°
Exits shadow 10:30:26 18° 333° (NNW) 1,470 6.1 -17.2°
Drops below altitude 10° 10:32:37 10° 2° (N) 1,955 7.0 -16.8°
Sets 10:35:26 0° 19° (NNE) 2,894 8.1 -16.3°
